Year,Month,Day,Hour,Minute,Value (Times are PST for temperature in C)
2007,05,30,00,00,13.40
2007,05,30,00,01,13.40
2007,05,30,00,02,13.40
2007,05,30,00,03,13.40
2007,05,30,00,04,13.40
2007,05,30,00,05,13.40
2007,05,30,00,06,13.40
2007,05,30,00,07,13.40
2007,05,30,00,08,13.40
2007,05,30,00,09,13.40
2007,05,30,00,10,13.40
2007,05,30,00,11,13.40
2007,05,30,00,12,13.40
2007,05,30,00,13,13.40
2007,05,30,00,14,13.50
2007,05,30,00,15,13.50
2007,05,30,00,16,13.50
2007,05,30,00,17,13.60
2007,05,30,00,18,13.60
2007,05,30,00,19,13.60
2007,05,30,00,20,13.70
2007,05,30,00,21,13.70
2007,05,30,00,22,13.80
2007,05,30,00,23,13.80
2007,05,30,00,24,13.80
2007,05,30,00,25,13.80
2007,05,30,00,26,13.80
2007,05,30,00,27,13.80
2007,05,30,00,28,13.70
2007,05,30,00,29,13.70
2007,05,30,00,30,13.60
2007,05,30,00,31,13.60
2007,05,30,00,32,13.50
2007,05,30,00,33,13.40
2007,05,30,00,34,13.40
2007,05,30,00,35,13.30
2007,05,30,00,36,13.30
2007,05,30,00,37,13.20
2007,05,30,00,38,13.20
2007,05,30,00,39,13.10
2007,05,30,00,40,13.10
2007,05,30,00,41,13.10
2007,05,30,00,42,13.00
2007,05,30,00,43,13.00
2007,05,30,00,44,13.10
2007,05,30,00,45,13.10
2007,05,30,00,46,13.10
2007,05,30,00,47,13.10
2007,05,30,00,48,13.10
2007,05,30,00,49,13.10
2007,05,30,00,50,13.10
2007,05,30,00,51,13.00
2007,05,30,00,52,12.90
2007,05,30,00,53,12.90
2007,05,30,00,54,12.80
2007,05,30,00,55,12.80
2007,05,30,00,56,12.70
2007,05,30,00,57,12.70
2007,05,30,00,58,12.70
2007,05,30,00,59,12.70
2007,05,30,01,00,12.70
2007,05,30,01,01,12.70
2007,05,30,01,02,12.60
2007,05,30,01,03,12.60
2007,05,30,01,04,12.60
2007,05,30,01,05,12.60
2007,05,30,01,06,12.60
2007,05,30,01,07,12.60
2007,05,30,01,08,12.60
2007,05,30,01,09,12.60
2007,05,30,01,10,12.60
2007,05,30,01,11,12.60
2007,05,30,01,12,12.60
2007,05,30,01,13,12.70
2007,05,30,01,14,12.70
2007,05,30,01,15,12.60
2007,05,30,01,16,12.60
2007,05,30,01,17,12.60
2007,05,30,01,18,12.50
2007,05,30,01,19,12.40
2007,05,30,01,20,12.40
2007,05,30,01,21,12.40
2007,05,30,01,22,12.30
2007,05,30,01,23,12.30
2007,05,30,01,24,12.30
2007,05,30,01,25,12.30
2007,05,30,01,26,12.20
2007,05,30,01,27,12.20
2007,05,30,01,28,12.10
2007,05,30,01,29,12.10
2007,05,30,01,30,12.00
2007,05,30,01,31,12.00
2007,05,30,01,32,11.90
2007,05,30,01,33,11.90
2007,05,30,01,34,11.90
2007,05,30,01,35,11.90
2007,05,30,01,36,11.90
2007,05,30,01,37,11.90
2007,05,30,01,38,11.90
2007,05,30,01,39,11.90
2007,05,30,01,40,11.90
2007,05,30,01,41,11.90
2007,05,30,01,42,12.00
2007,05,30,01,43,12.00
2007,05,30,01,44,12.00
2007,05,30,01,45,12.00
2007,05,30,01,46,12.00
2007,05,30,01,47,12.00
2007,05,30,01,48,11.90
2007,05,30,01,49,11.90
2007,05,30,01,50,11.90
2007,05,30,01,51,11.90
2007,05,30,01,52,11.90
2007,05,30,01,53,11.90
2007,05,30,01,54,11.90
2007,05,30,01,55,11.90
2007,05,30,01,56,12.00
2007,05,30,01,57,12.10
2007,05,30,01,58,12.10
2007,05,30,01,59,12.20
2007,05,30,02,00,12.30
2007,05,30,02,01,12.30
2007,05,30,02,02,12.40
2007,05,30,02,03,12.50
2007,05,30,02,04,12.50
2007,05,30,02,05,12.60
2007,05,30,02,06,12.60
2007,05,30,02,07,12.70
2007,05,30,02,08,12.70
2007,05,30,02,09,12.80
2007,05,30,02,10,12.80
2007,05,30,02,11,12.90
2007,05,30,02,12,12.90
2007,05,30,02,13,12.90
2007,05,30,02,14,13.00
2007,05,30,02,15,13.00
2007,05,30,02,16,13.10
2007,05,30,02,17,13.10
2007,05,30,02,18,13.20
2007,05,30,02,19,13.30
2007,05,30,02,20,13.30
2007,05,30,02,21,13.30
2007,05,30,02,22,13.30
2007,05,30,02,23,13.30
2007,05,30,02,24,13.30
2007,05,30,02,25,13.30
2007,05,30,02,26,13.30
2007,05,30,02,27,13.20
2007,05,30,02,28,13.20
2007,05,30,02,29,13.10
2007,05,30,02,30,13.10
2007,05,30,02,31,13.00
2007,05,30,02,32,13.00
2007,05,30,02,33,12.90
2007,05,30,02,34,12.90
2007,05,30,02,35,12.90
2007,05,30,02,36,12.80
2007,05,30,02,37,12.80
2007,05,30,02,38,12.70
2007,05,30,02,39,12.50
2007,05,30,02,40,12.40
2007,05,30,02,41,12.30
2007,05,30,02,42,12.30
2007,05,30,02,43,12.20
2007,05,30,02,44,12.20
2007,05,30,02,45,12.10
2007,05,30,02,46,12.10
2007,05,30,02,47,12.10
2007,05,30,02,48,12.10
2007,05,30,02,49,12.10
2007,05,30,02,50,12.10
2007,05,30,02,51,12.10
2007,05,30,02,52,12.10
2007,05,30,02,53,12.10
2007,05,30,02,54,12.10
2007,05,30,02,55,12.10
2007,05,30,02,56,12.20
2007,05,30,02,57,12.10
2007,05,30,02,58,12.10
2007,05,30,02,59,12.00
2007,05,30,03,00,11.90
2007,05,30,03,01,11.90
2007,05,30,03,02,11.90
2007,05,30,03,03,11.80
2007,05,30,03,04,11.80
2007,05,30,03,05,11.80
2007,05,30,03,06,11.80
2007,05,30,03,07,11.80
2007,05,30,03,08,11.80
2007,05,30,03,09,11.80
2007,05,30,03,10,11.80
2007,05,30,03,11,11.80
2007,05,30,03,12,11.70
2007,05,30,03,13,11.80
2007,05,30,03,14,11.80
2007,05,30,03,15,11.80
2007,05,30,03,16,11.80
2007,05,30,03,17,11.80
2007,05,30,03,18,11.80
2007,05,30,03,19,11.80
2007,05,30,03,20,11.90
2007,05,30,03,21,11.90
2007,05,30,03,22,11.90
2007,05,30,03,23,11.90
2007,05,30,03,24,11.90
2007,05,30,03,25,11.90
2007,05,30,03,26,11.90
2007,05,30,03,27,11.90
2007,05,30,03,28,11.90
2007,05,30,03,29,11.80
2007,05,30,03,30,11.80
2007,05,30,03,31,11.80
2007,05,30,03,32,11.90
2007,05,30,03,33,11.90
2007,05,30,03,34,12.00
2007,05,30,03,35,12.10
2007,05,30,03,36,12.10
2007,05,30,03,37,12.20
2007,05,30,03,38,12.30
2007,05,30,03,39,12.30
2007,05,30,03,40,12.30
2007,05,30,03,41,12.30
2007,05,30,03,42,12.40
2007,05,30,03,43,12.40
2007,05,30,03,44,12.40
2007,05,30,03,45,12.40
2007,05,30,03,46,12.40
2007,05,30,03,47,12.40
2007,05,30,03,48,12.40
2007,05,30,03,49,12.40
2007,05,30,03,50,12.40
2007,05,30,03,51,12.30
2007,05,30,03,52,12.30
2007,05,30,03,53,12.30
2007,05,30,03,54,12.30
2007,05,30,03,55,12.30
2007,05,30,03,56,12.20
2007,05,30,03,57,12.20
2007,05,30,03,58,12.20
2007,05,30,03,59,12.20
2007,05,30,04,00,12.20
2007,05,30,04,01,12.20
2007,05,30,04,02,12.20
2007,05,30,04,03,12.10
2007,05,30,04,04,12.10
2007,05,30,04,05,12.10
2007,05,30,04,06,12.10
2007,05,30,04,07,12.10
2007,05,30,04,08,12.10
2007,05,30,04,09,12.10
2007,05,30,04,10,12.10
2007,05,30,04,11,12.20
2007,05,30,04,12,12.20
2007,05,30,04,13,12.20
2007,05,30,04,14,12.20
2007,05,30,04,15,12.20
2007,05,30,04,16,12.20
2007,05,30,04,17,12.20
2007,05,30,04,18,12.20
2007,05,30,04,19,12.20
2007,05,30,04,20,12.20
2007,05,30,04,21,12.20
2007,05,30,04,22,12.20
2007,05,30,04,23,12.20
2007,05,30,04,24,12.20
2007,05,30,04,25,12.10
2007,05,30,04,26,12.10
2007,05,30,04,27,12.10
2007,05,30,04,28,12.10
2007,05,30,04,29,12.10
2007,05,30,04,30,12.10
2007,05,30,04,31,12.10
2007,05,30,04,32,12.10
2007,05,30,04,33,12.10
2007,05,30,04,34,12.10
2007,05,30,04,35,12.00
2007,05,30,04,36,12.00
2007,05,30,04,37,11.90
2007,05,30,04,38,11.90
2007,05,30,04,39,11.90
2007,05,30,04,40,11.90
2007,05,30,04,41,11.80
2007,05,30,04,42,11.80
2007,05,30,04,43,11.80
2007,05,30,04,44,11.80
2007,05,30,04,45,11.80
2007,05,30,04,46,11.80
2007,05,30,04,47,11.80
2007,05,30,04,48,11.70
2007,05,30,04,49,11.70
2007,05,30,04,50,11.70
2007,05,30,04,51,11.70
2007,05,30,04,52,11.70
2007,05,30,04,53,11.70
2007,05,30,04,54,11.70
2007,05,30,04,55,11.70
2007,05,30,04,56,11.70
2007,05,30,04,57,11.70
2007,05,30,04,58,11.70
2007,05,30,04,59,11.70
2007,05,30,05,00,11.70
2007,05,30,05,01,11.70
2007,05,30,05,02,11.70
2007,05,30,05,03,11.70
2007,05,30,05,04,11.70
2007,05,30,05,05,11.70
2007,05,30,05,06,11.70
2007,05,30,05,07,11.80
2007,05,30,05,08,11.70
2007,05,30,05,09,11.70
2007,05,30,05,10,11.70
2007,05,30,05,11,11.70
2007,05,30,05,12,11.70
2007,05,30,05,13,11.70
2007,05,30,05,14,11.60
2007,05,30,05,15,11.60
2007,05,30,05,16,11.60
2007,05,30,05,17,11.60
2007,05,30,05,18,11.60
2007,05,30,05,19,11.60
2007,05,30,05,20,11.60
2007,05,30,05,21,11.60
2007,05,30,05,22,11.60
2007,05,30,05,23,11.60
2007,05,30,05,24,11.60
2007,05,30,05,25,11.60
2007,05,30,05,26,11.60
2007,05,30,05,27,11.60
2007,05,30,05,28,11.60
2007,05,30,05,29,11.60
2007,05,30,05,30,11.60
2007,05,30,05,31,11.60
2007,05,30,05,32,11.60
2007,05,30,05,33,11.60
2007,05,30,05,34,11.60
2007,05,30,05,35,11.60
2007,05,30,05,36,11.60
2007,05,30,05,37,11.60
2007,05,30,05,38,11.60
2007,05,30,05,39,11.60
2007,05,30,05,40,11.60
2007,05,30,05,41,11.60
2007,05,30,05,42,11.50
2007,05,30,05,43,11.50
2007,05,30,05,44,11.50
2007,05,30,05,45,11.50
2007,05,30,05,46,11.40
2007,05,30,05,47,11.40
2007,05,30,05,48,11.40
2007,05,30,05,49,11.40
2007,05,30,05,50,11.40
2007,05,30,05,51,11.40
2007,05,30,05,52,11.50
2007,05,30,05,53,11.50
2007,05,30,05,54,11.50
2007,05,30,05,55,11.60
2007,05,30,05,56,11.60
2007,05,30,05,57,11.60
2007,05,30,05,58,11.60
2007,05,30,05,59,11.70
2007,05,30,06,00,11.70
2007,05,30,06,01,11.70
2007,05,30,06,02,11.70
2007,05,30,06,03,11.70
2007,05,30,06,04,11.80
2007,05,30,06,05,11.80
2007,05,30,06,06,11.80
2007,05,30,06,07,11.80
2007,05,30,06,08,11.90
2007,05,30,06,09,11.90
2007,05,30,06,10,11.90
2007,05,30,06,11,11.90
2007,05,30,06,12,11.90
2007,05,30,06,13,11.90
2007,05,30,06,14,11.90
2007,05,30,06,15,12.00
2007,05,30,06,16,12.00
2007,05,30,06,17,12.10
2007,05,30,06,18,12.10
2007,05,30,06,19,12.10
2007,05,30,06,20,12.20
2007,05,30,06,21,12.30
2007,05,30,06,22,12.30
2007,05,30,06,23,12.40
2007,05,30,06,24,12.50
2007,05,30,06,25,12.60
2007,05,30,06,26,12.60
2007,05,30,06,27,12.80
2007,05,30,06,28,12.90
2007,05,30,06,29,13.00
2007,05,30,06,30,13.00
2007,05,30,06,31,13.10
2007,05,30,06,32,13.20
2007,05,30,06,33,13.20
2007,05,30,06,34,13.30
2007,05,30,06,35,13.30
2007,05,30,06,36,13.40
2007,05,30,06,37,13.40
2007,05,30,06,38,13.50
2007,05,30,06,39,13.50
2007,05,30,06,40,13.60
2007,05,30,06,41,13.70
2007,05,30,06,42,13.70
2007,05,30,06,43,13.80
2007,05,30,06,44,13.80
2007,05,30,06,45,13.80
2007,05,30,06,46,13.80
2007,05,30,06,47,13.80
2007,05,30,06,48,13.80
2007,05,30,06,49,13.90
2007,05,30,06,50,13.90
2007,05,30,06,51,13.90
2007,05,30,06,52,14.00
2007,05,30,06,53,14.00
2007,05,30,06,54,14.10
2007,05,30,06,55,14.20
2007,05,30,06,56,14.30
2007,05,30,06,57,14.40
2007,05,30,06,58,14.50
2007,05,30,06,59,14.60
2007,05,30,07,00,14.70
2007,05,30,07,01,14.70
2007,05,30,07,02,14.80
2007,05,30,07,03,14.80
2007,05,30,07,04,14.90
2007,05,30,07,05,14.90
2007,05,30,07,06,15.00
2007,05,30,07,07,15.00
2007,05,30,07,08,15.00
2007,05,30,07,09,15.00
2007,05,30,07,10,15.10
2007,05,30,07,11,15.20
2007,05,30,07,12,15.20
2007,05,30,07,13,15.20
2007,05,30,07,14,15.30
2007,05,30,07,15,15.30
2007,05,30,07,16,15.30
2007,05,30,07,17,15.30
2007,05,30,07,18,15.20
2007,05,30,07,19,15.20
2007,05,30,07,20,15.20
2007,05,30,07,21,15.30
2007,05,30,07,22,15.40
2007,05,30,07,23,15.50
2007,05,30,07,24,15.60
2007,05,30,07,25,15.70
2007,05,30,07,26,15.80
2007,05,30,07,27,16.00
2007,05,30,07,28,16.10
2007,05,30,07,29,16.20
2007,05,30,07,30,16.20
2007,05,30,07,31,16.20
2007,05,30,07,32,16.20
2007,05,30,07,33,16.20
2007,05,30,07,34,16.20
2007,05,30,07,35,16.10
2007,05,30,07,36,16.10
2007,05,30,07,37,16.10
2007,05,30,07,38,16.10
2007,05,30,07,39,16.20
2007,05,30,07,40,16.30
2007,05,30,07,41,16.40
2007,05,30,07,42,16.50
2007,05,30,07,43,16.70
2007,05,30,07,44,16.80
2007,05,30,07,45,16.90
2007,05,30,07,46,17.10
2007,05,30,07,47,17.20
2007,05,30,07,48,17.30
2007,05,30,07,49,17.30
2007,05,30,07,50,17.40
2007,05,30,07,51,17.40
2007,05,30,07,52,17.50
2007,05,30,07,53,17.50
2007,05,30,07,54,17.60
2007,05,30,07,55,17.60
2007,05,30,07,56,17.60
2007,05,30,07,57,17.60
2007,05,30,07,58,17.70
2007,05,30,07,59,17.70
2007,05,30,08,00,17.80
2007,05,30,08,01,17.80
2007,05,30,08,02,17.90
2007,05,30,08,03,17.90
2007,05,30,08,04,17.90
2007,05,30,08,05,17.90
2007,05,30,08,06,17.80
2007,05,30,08,07,17.70
2007,05,30,08,08,17.70
2007,05,30,08,09,17.70
2007,05,30,08,10,17.70
2007,05,30,08,11,17.70
2007,05,30,08,12,17.80
2007,05,30,08,13,17.90
2007,05,30,08,14,17.90
2007,05,30,08,15,17.90
2007,05,30,08,16,18.00
2007,05,30,08,17,18.00
2007,05,30,08,18,18.00
2007,05,30,08,19,17.90
2007,05,30,08,20,17.90
2007,05,30,08,21,17.90
2007,05,30,08,22,17.90
2007,05,30,08,23,17.90
2007,05,30,08,24,17.90
2007,05,30,08,25,17.80
2007,05,30,08,26,17.80
2007,05,30,08,27,17.80
2007,05,30,08,28,17.80
2007,05,30,08,29,17.80
2007,05,30,08,30,17.80
2007,05,30,08,31,17.80
2007,05,30,08,32,17.90
2007,05,30,08,33,17.90
2007,05,30,08,34,17.90
2007,05,30,08,35,17.90
2007,05,30,08,36,17.90
2007,05,30,08,37,17.90
2007,05,30,08,38,17.90
2007,05,30,08,39,18.00
2007,05,30,08,40,18.10
2007,05,30,08,41,18.20
2007,05,30,08,42,18.30
2007,05,30,08,43,18.50
2007,05,30,08,44,18.50
2007,05,30,08,45,18.60
2007,05,30,08,46,18.60
2007,05,30,08,47,18.60
2007,05,30,08,48,18.60
2007,05,30,08,49,18.60
2007,05,30,08,50,18.60
2007,05,30,08,51,18.60
2007,05,30,08,52,18.60
2007,05,30,08,53,18.60
2007,05,30,08,54,18.60
2007,05,30,08,55,18.60
2007,05,30,08,56,18.50
2007,05,30,08,57,18.40
2007,05,30,08,58,18.40
2007,05,30,08,59,18.30
2007,05,30,09,00,18.30
2007,05,30,09,01,18.20
2007,05,30,09,02,18.00
2007,05,30,09,03,18.00
2007,05,30,09,04,17.90
2007,05,30,09,05,17.80
2007,05,30,09,06,17.80
2007,05,30,09,07,17.80
2007,05,30,09,08,17.80
2007,05,30,09,09,17.80
2007,05,30,09,10,17.70
2007,05,30,09,11,17.50
2007,05,30,09,12,17.40
2007,05,30,09,13,17.40
2007,05,30,09,14,17.40
2007,05,30,09,15,17.40
2007,05,30,09,16,17.40
2007,05,30,09,17,17.50
2007,05,30,09,18,17.50
2007,05,30,09,19,17.60
2007,05,30,09,20,17.60
2007,05,30,09,21,17.70
2007,05,30,09,22,17.70
2007,05,30,09,23,17.70
2007,05,30,09,24,17.70
2007,05,30,09,25,17.70
2007,05,30,09,26,17.70
2007,05,30,09,27,17.70
2007,05,30,09,28,17.70
2007,05,30,09,29,17.70
2007,05,30,09,30,17.70
2007,05,30,09,31,17.70
2007,05,30,09,32,17.70
2007,05,30,09,33,17.60
2007,05,30,09,34,17.50
2007,05,30,09,35,17.40
2007,05,30,09,36,17.40
2007,05,30,09,37,17.40
2007,05,30,09,38,17.40
2007,05,30,09,39,17.30
2007,05,30,09,40,17.20
2007,05,30,09,41,17.10
2007,05,30,09,42,17.10
2007,05,30,09,43,17.10
2007,05,30,09,44,17.20
2007,05,30,09,45,17.10
2007,05,30,09,46,17.10
2007,05,30,09,47,17.20
2007,05,30,09,48,17.20
2007,05,30,09,49,17.20
2007,05,30,09,50,17.20
2007,05,30,09,51,17.20
2007,05,30,09,52,17.20
2007,05,30,09,53,17.20
2007,05,30,09,54,17.10
2007,05,30,09,55,17.10
2007,05,30,09,56,17.20
2007,05,30,09,57,17.20
2007,05,30,09,58,17.20
2007,05,30,09,59,17.20
2007,05,30,10,00,17.20
2007,05,30,10,01,17.20
2007,05,30,10,02,17.20
2007,05,30,10,03,17.20
2007,05,30,10,04,17.20
2007,05,30,10,05,17.30
2007,05,30,10,06,17.30
2007,05,30,10,07,17.30
2007,05,30,10,08,17.30
2007,05,30,10,09,17.30
2007,05,30,10,10,17.20
2007,05,30,10,11,17.20
2007,05,30,10,12,17.20
2007,05,30,10,13,17.20
2007,05,30,10,14,17.30
2007,05,30,10,15,17.30
2007,05,30,10,16,17.40
2007,05,30,10,17,17.50
2007,05,30,10,18,17.60
2007,05,30,10,19,17.70
2007,05,30,10,20,17.80
2007,05,30,10,21,17.90
2007,05,30,10,22,18.00
2007,05,30,10,23,18.10
2007,05,30,10,24,18.10
2007,05,30,10,25,18.10
2007,05,30,10,26,18.00
2007,05,30,10,27,17.90
2007,05,30,10,28,17.80
2007,05,30,10,29,17.70
2007,05,30,10,30,17.70
2007,05,30,10,31,17.70
2007,05,30,10,32,17.70
2007,05,30,10,33,17.70
2007,05,30,10,34,17.80
2007,05,30,10,35,17.80
2007,05,30,10,36,17.90
2007,05,30,10,37,18.00
2007,05,30,10,38,18.10
2007,05,30,10,39,18.10
2007,05,30,10,40,18.20
2007,05,30,10,41,18.20
2007,05,30,10,42,18.20
2007,05,30,10,43,18.20
2007,05,30,10,44,18.10
2007,05,30,10,45,18.10
2007,05,30,10,46,18.20
2007,05,30,10,47,18.20
2007,05,30,10,48,18.30
2007,05,30,10,49,18.40
2007,05,30,10,50,18.50
2007,05,30,10,51,18.50
2007,05,30,10,52,18.60
2007,05,30,10,53,18.60
2007,05,30,10,54,18.60
2007,05,30,10,55,18.50
2007,05,30,10,56,18.40
2007,05,30,10,57,18.30
2007,05,30,10,58,18.40
2007,05,30,10,59,18.40
2007,05,30,11,00,18.40
2007,05,30,11,01,18.50
2007,05,30,11,02,18.60
2007,05,30,11,03,18.70
2007,05,30,11,04,18.80
2007,05,30,11,05,18.80
2007,05,30,11,06,18.90
2007,05,30,11,07,18.90
2007,05,30,11,08,18.80
2007,05,30,11,09,18.70
2007,05,30,11,10,18.80
2007,05,30,11,11,18.90
2007,05,30,11,12,18.90
2007,05,30,11,13,19.00
2007,05,30,11,14,19.10
2007,05,30,11,15,19.10
2007,05,30,11,16,19.20
2007,05,30,11,17,19.20
2007,05,30,11,18,19.20
2007,05,30,11,19,19.20
2007,05,30,11,20,19.20
2007,05,30,11,21,19.10
2007,05,30,11,22,19.10
2007,05,30,11,23,19.10
2007,05,30,11,24,19.20
2007,05,30,11,25,19.20
2007,05,30,11,26,19.20
2007,05,30,11,27,19.30
2007,05,30,11,28,19.30
2007,05,30,11,29,19.20
2007,05,30,11,30,19.20
2007,05,30,11,31,19.20
2007,05,30,11,32,19.20
2007,05,30,11,33,19.30
2007,05,30,11,34,19.40
2007,05,30,11,35,19.50
2007,05,30,11,36,19.50
2007,05,30,11,37,19.60
2007,05,30,11,38,19.50
2007,05,30,11,39,19.50
2007,05,30,11,40,19.50
2007,05,30,11,41,19.50
2007,05,30,11,42,19.40
2007,05,30,11,43,19.40
2007,05,30,11,44,19.40
2007,05,30,11,45,19.40
2007,05,30,11,46,19.40
2007,05,30,11,47,19.40
2007,05,30,11,48,19.40
2007,05,30,11,49,19.40
2007,05,30,11,50,19.50
2007,05,30,11,51,19.50
2007,05,30,11,52,19.50
2007,05,30,11,53,19.40
2007,05,30,11,54,19.40
2007,05,30,11,55,19.40
2007,05,30,11,56,19.30
2007,05,30,11,57,19.30
2007,05,30,11,58,19.20
2007,05,30,11,59,19.10
2007,05,30,12,00,19.10
2007,05,30,12,01,19.20
2007,05,30,12,02,19.30
2007,05,30,12,03,19.30
2007,05,30,12,04,19.40
2007,05,30,12,05,19.60
2007,05,30,12,06,19.70
2007,05,30,12,07,19.70
2007,05,30,12,08,19.80
2007,05,30,12,09,19.80
2007,05,30,12,10,19.80
2007,05,30,12,11,19.80
2007,05,30,12,12,19.90
2007,05,30,12,13,19.90
2007,05,30,12,14,20.00
2007,05,30,12,15,19.90
2007,05,30,12,16,19.90
2007,05,30,12,17,20.00
2007,05,30,12,18,20.00
2007,05,30,12,19,20.10
2007,05,30,12,20,20.10
2007,05,30,12,21,20.10
2007,05,30,12,22,20.20
2007,05,30,12,23,20.30
2007,05,30,12,24,20.40
2007,05,30,12,25,20.50
2007,05,30,12,26,20.60
2007,05,30,12,27,20.60
2007,05,30,12,28,20.60
2007,05,30,12,29,20.70
2007,05,30,12,30,20.70
2007,05,30,12,31,20.80
2007,05,30,12,32,20.80
2007,05,30,12,33,20.90
2007,05,30,12,34,20.90
2007,05,30,12,35,21.00
2007,05,30,12,36,21.00
2007,05,30,12,37,21.10
2007,05,30,12,38,21.10
2007,05,30,12,39,21.20
2007,05,30,12,40,21.20
2007,05,30,12,41,21.20
2007,05,30,12,42,21.30
2007,05,30,12,43,21.30
2007,05,30,12,44,21.40
2007,05,30,12,45,21.50
2007,05,30,12,46,21.40
2007,05,30,12,47,21.40
2007,05,30,12,48,21.30
2007,05,30,12,49,21.30
2007,05,30,12,50,21.30
2007,05,30,12,51,21.30
2007,05,30,12,52,21.30
2007,05,30,12,53,21.30
2007,05,30,12,54,21.20
2007,05,30,12,55,21.20
2007,05,30,12,56,21.20
2007,05,30,12,57,21.30
2007,05,30,12,58,21.30
2007,05,30,12,59,21.30
2007,05,30,13,00,21.20
2007,05,30,13,01,21.20
2007,05,30,13,02,21.10
2007,05,30,13,03,21.10
2007,05,30,13,04,21.10
2007,05,30,13,05,21.20
2007,05,30,13,06,21.30
2007,05,30,13,07,21.40
2007,05,30,13,08,21.50
2007,05,30,13,09,21.50
2007,05,30,13,10,21.60
2007,05,30,13,11,21.50
2007,05,30,13,12,21.50
2007,05,30,13,13,21.40
2007,05,30,13,14,21.30
2007,05,30,13,15,21.30
2007,05,30,13,16,21.30
2007,05,30,13,17,21.30
2007,05,30,13,18,21.40
2007,05,30,13,19,21.50
2007,05,30,13,20,21.60
2007,05,30,13,21,21.70
2007,05,30,13,22,21.80
2007,05,30,13,23,21.80
2007,05,30,13,24,21.90
2007,05,30,13,25,22.00
2007,05,30,13,26,22.10
2007,05,30,13,27,22.10
2007,05,30,13,28,22.20
2007,05,30,13,29,22.20
2007,05,30,13,30,22.20
2007,05,30,13,31,22.40
2007,05,30,13,32,22.50
2007,05,30,13,33,22.60
2007,05,30,13,34,22.50
2007,05,30,13,35,22.40
2007,05,30,13,36,22.30
2007,05,30,13,37,22.20
2007,05,30,13,38,22.10
2007,05,30,13,39,22.00
2007,05,30,13,40,21.80
2007,05,30,13,41,21.70
2007,05,30,13,42,21.70
2007,05,30,13,43,21.70
2007,05,30,13,44,21.70
2007,05,30,13,45,21.60
2007,05,30,13,46,21.60
2007,05,30,13,47,21.60
2007,05,30,13,48,21.60
2007,05,30,13,49,21.60
2007,05,30,13,50,21.70
2007,05,30,13,51,21.80
2007,05,30,13,52,21.80
2007,05,30,13,53,21.90
2007,05,30,13,54,22.00
2007,05,30,13,55,22.10
2007,05,30,13,56,22.20
2007,05,30,13,57,22.20
2007,05,30,13,58,22.20
2007,05,30,13,59,22.20
2007,05,30,14,00,22.30
2007,05,30,14,01,22.30
2007,05,30,14,02,22.30
2007,05,30,14,03,22.30
2007,05,30,14,04,22.40
2007,05,30,14,05,22.40
2007,05,30,14,06,22.40
2007,05,30,14,07,22.40
2007,05,30,14,08,22.30
2007,05,30,14,09,22.10
2007,05,30,14,10,21.90
2007,05,30,14,11,21.80
2007,05,30,14,12,21.60
2007,05,30,14,13,21.60
2007,05,30,14,14,21.60
2007,05,30,14,15,21.50
2007,05,30,14,16,21.50
2007,05,30,14,17,21.60
2007,05,30,14,18,21.60
2007,05,30,14,19,21.60
2007,05,30,14,20,21.60
2007,05,30,14,21,21.60
2007,05,30,14,22,21.70
2007,05,30,14,23,21.80
2007,05,30,14,24,21.80
2007,05,30,14,25,22.00
2007,05,30,14,26,22.10
2007,05,30,14,27,22.30
2007,05,30,14,28,22.30
2007,05,30,14,29,22.40
2007,05,30,14,30,22.40
2007,05,30,14,31,22.40
2007,05,30,14,32,22.40
2007,05,30,14,33,22.50
2007,05,30,14,34,22.60
2007,05,30,14,35,22.70
2007,05,30,14,36,22.90
2007,05,30,14,37,23.00
2007,05,30,14,38,23.10
2007,05,30,14,39,23.20
2007,05,30,14,40,23.30
2007,05,30,14,41,23.40
2007,05,30,14,42,23.40
2007,05,30,14,43,23.30
2007,05,30,14,44,23.20
2007,05,30,14,45,23.20
2007,05,30,14,46,23.30
2007,05,30,14,47,23.30
2007,05,30,14,48,23.30
2007,05,30,14,49,23.30
2007,05,30,14,50,23.40
2007,05,30,14,51,23.40
2007,05,30,14,52,23.40
2007,05,30,14,53,23.30
2007,05,30,14,54,23.30
2007,05,30,14,55,23.20
2007,05,30,14,56,23.20
2007,05,30,14,57,23.20
2007,05,30,14,58,23.10
2007,05,30,14,59,23.00
2007,05,30,15,00,22.80
2007,05,30,15,01,22.70
2007,05,30,15,02,22.60
2007,05,30,15,03,22.60
2007,05,30,15,04,22.50
2007,05,30,15,05,22.40
2007,05,30,15,06,22.40
2007,05,30,15,07,22.40
2007,05,30,15,08,22.40
2007,05,30,15,09,22.40
2007,05,30,15,10,22.40
2007,05,30,15,11,22.40
2007,05,30,15,12,22.40
2007,05,30,15,13,22.30
2007,05,30,15,14,22.30
2007,05,30,15,15,22.30
2007,05,30,15,16,22.30
2007,05,30,15,17,22.30
2007,05,30,15,18,22.20
2007,05,30,15,19,22.20
2007,05,30,15,20,22.20
2007,05,30,15,21,22.20
2007,05,30,15,22,22.20
2007,05,30,15,23,22.20
2007,05,30,15,24,22.20
2007,05,30,15,25,22.20
2007,05,30,15,26,22.40
2007,05,30,15,27,22.50
2007,05,30,15,28,22.60
2007,05,30,15,29,22.70
2007,05,30,15,30,22.80
2007,05,30,15,31,22.90
2007,05,30,15,32,23.10
2007,05,30,15,33,23.20
2007,05,30,15,34,23.30
2007,05,30,15,35,23.50
2007,05,30,15,36,23.60
2007,05,30,15,37,23.70
2007,05,30,15,38,23.80
2007,05,30,15,39,23.80
2007,05,30,15,40,23.70
2007,05,30,15,41,23.70
2007,05,30,15,42,23.60
2007,05,30,15,43,23.60
2007,05,30,15,44,23.60
2007,05,30,15,45,23.60
2007,05,30,15,46,23.70
2007,05,30,15,47,23.80
2007,05,30,15,48,23.90
2007,05,30,15,49,24.00
2007,05,30,15,50,24.10
2007,05,30,15,51,24.20
2007,05,30,15,52,24.10
2007,05,30,15,53,24.00
2007,05,30,15,54,23.90
2007,05,30,15,55,23.80
2007,05,30,15,56,23.80
2007,05,30,15,57,23.70
2007,05,30,15,58,23.60
2007,05,30,15,59,23.60
2007,05,30,16,00,23.60
2007,05,30,16,01,23.50
2007,05,30,16,02,23.40
2007,05,30,16,03,23.30
2007,05,30,16,04,23.30
2007,05,30,16,05,23.30
2007,05,30,16,06,23.30
2007,05,30,16,07,23.40
2007,05,30,16,08,23.40
2007,05,30,16,09,23.50
2007,05,30,16,10,23.60
2007,05,30,16,11,23.60
2007,05,30,16,12,23.70
2007,05,30,16,13,23.70
2007,05,30,16,14,23.70
2007,05,30,16,15,23.70
2007,05,30,16,16,23.70
2007,05,30,16,17,23.70
2007,05,30,16,18,23.60
2007,05,30,16,19,23.70
2007,05,30,16,20,23.60
2007,05,30,16,21,23.60
2007,05,30,16,22,23.50
2007,05,30,16,23,23.40
2007,05,30,16,24,23.30
2007,05,30,16,25,23.30
2007,05,30,16,26,23.30
2007,05,30,16,27,23.30
2007,05,30,16,28,23.30
2007,05,30,16,29,23.30
2007,05,30,16,30,23.30
2007,05,30,16,31,23.40
2007,05,30,16,32,23.40
2007,05,30,16,33,23.50
2007,05,30,16,34,23.70
2007,05,30,16,35,23.80
2007,05,30,16,36,24.10
2007,05,30,16,37,24.30
2007,05,30,16,38,24.40
2007,05,30,16,39,24.40
2007,05,30,16,40,24.50
2007,05,30,16,41,24.50
2007,05,30,16,42,24.50
2007,05,30,16,43,24.40
2007,05,30,16,44,24.30
2007,05,30,16,45,24.30
2007,05,30,16,46,24.10
2007,05,30,16,47,24.00
2007,05,30,16,48,23.80
2007,05,30,16,49,23.70
2007,05,30,16,50,23.60
2007,05,30,16,51,23.60
2007,05,30,16,52,23.50
2007,05,30,16,53,23.50
2007,05,30,16,54,23.50
2007,05,30,16,55,23.60
2007,05,30,16,56,23.60
2007,05,30,16,57,23.70
2007,05,30,16,58,23.60
2007,05,30,16,59,23.50
2007,05,30,17,00,23.40
2007,05,30,17,01,23.20
2007,05,30,17,02,23.10
2007,05,30,17,03,23.00
2007,05,30,17,04,22.90
2007,05,30,17,05,22.80
2007,05,30,17,06,22.80
2007,05,30,17,07,22.70
2007,05,30,17,08,22.60
2007,05,30,17,09,22.60
2007,05,30,17,10,22.60
2007,05,30,17,11,22.50
2007,05,30,17,12,22.50
2007,05,30,17,13,22.40
2007,05,30,17,14,22.30
2007,05,30,17,15,22.30
2007,05,30,17,16,22.30
2007,05,30,17,17,22.20
2007,05,30,17,18,22.20
2007,05,30,17,19,22.20